Fort Dodge, IA

5:04 PM CDT on July 20, 2017 (GMT -0500)
Fort Dodge Regional

Weather History for KFOD - January, 2014

Change the Weather History Date:

Friday, January 24, 2014

  Actual Average Record
Temperature  
Mean Temperature 21 °F -  
Max Temperature 39 °F 30 °F 64 °F (1981)
Min Temperature 3 °F 9 °F -19 °F (1982)
Degree Days  
Heating Degree Days 44    
Moisture  
Dew Point 16 °F    
Average Humidity 65    
Maximum Humidity 93    
Minimum Humidity 48    
Precipitation  
Precipitation 0.00 in - - ()
Sea Level Pressure  
Sea Level Pressure 29.85 in    
Wind  
Wind Speed 17 mph (WSW)    
Max Wind Speed 23 mph    
Max Gust Speed 33 mph    
Visibility 10 miles    
Events      
Averages and records for this station are not official NWS values.
T = Trace of Precipitation, MM = Missing Value Source: NWS Daily Summary

Daily Weather History Graph

Daily Weather History Graph

Search for Another Location

Airport or City:

Trip Planner

Search our weather history database for the weather conditions in past years. The results will help you decide how hot, cold, wet, or windy it might be!

Date:

Astronomy

Jan. 24, 2014 Rise Set
Actual Time 7:38 AM CST 5:20 PM CST
Civil Twilight 7:07 AM CST 5:50 PM CST
Nautical Twilight 6:33 AM CST 6:24 PM CST
Astronomical Twilight 6:00 AM CST 6:58 PM CST
Moon 1:04 AM CST (1/24) 11:40 AM CST (1/24)
Length of Visible Light 10h 42m
Length of Day
9h 42m
Last Quarter, 44% of the Moon is Illuminated
Jan 24
Last Quarter
Jan 30
New
Feb 6
First Quarter
Feb 14
Full
Feb 22
Last Quarter

Hourly Weather History & Observations

Time (CST) Temp. Windchill Dew Point Humidity Pressure Visibility Wind Dir Wind Speed Gust Speed Precip Events Conditions
12:15 AM 3.2 °F -17.6 °F -5.8 °F 66% 30.34 in 10.0 mi SSW 19.6 mph 26.5 mph N/A   Clear
12:35 AM 5.0 °F -14.2 °F -5.8 °F 61% 30.33 in 10.0 mi SSW 17.3 mph 23.0 mph N/A   Clear
12:55 AM 5.0 °F -13.6 °F -5.8 °F 61% 30.30 in 10.0 mi SSW 16.1 mph 25.3 mph N/A   Clear
1:15 AM 6.8 °F -13.4 °F -5.8 °F 56% 30.27 in 10.0 mi SSW 20.7 mph 27.6 mph N/A   Clear
1:35 AM 6.8 °F -11.8 °F -5.8 °F 56% 30.25 in 10.0 mi SSW 17.3 mph 26.5 mph N/A   Clear
1:55 AM 6.8 °F -10.7 °F -4.0 °F 61% 30.24 in 10.0 mi SSW 15.0 mph 25.3 mph N/A   Clear
2:15 AM 8.6 °F -10.0 °F -2.2 °F 62% 30.22 in 10.0 mi SSW 18.4 mph 26.5 mph N/A   Clear
2:35 AM 8.6 °F -9.5 °F -2.2 °F 62% 30.20 in 10.0 mi SSW 17.3 mph 24.2 mph N/A   Clear
2:55 AM 10.4 °F -7.7 °F -2.2 °F 57% 30.19 in 10.0 mi SW 18.4 mph 24.2 mph N/A   Clear
3:15 AM 10.4 °F -8.6 °F -2.2 °F 57% 30.17 in 10.0 mi SW 20.7 mph 25.3 mph N/A   Clear
3:35 AM 12.2 °F -3.7 °F -2.2 °F 53% 30.15 in 10.0 mi SW 15.0 mph 24.2 mph N/A   Clear
3:55 AM 12.2 °F -5.8 °F -0.4 °F 57% 30.12 in 10.0 mi SW 19.6 mph 26.5 mph N/A   Clear
4:15 AM 12.2 °F -5.8 °F -0.4 °F 57% 30.10 in 10.0 mi SW 19.6 mph 29.9 mph N/A   Clear
4:35 AM 14.0 °F -4.7 °F 1.4 °F 57% 30.09 in 10.0 mi SSW 23.0 mph 33.4 mph N/A   Clear
4:55 AM 14.0 °F -3.0 °F 1.4 °F 57% 30.07 in 10.0 mi SW 18.4 mph 26.5 mph N/A   Partly Cloudy
5:15 AM 14.0 °F -2.5 °F 1.4 °F 57% 30.05 in 10.0 mi SW 17.3 mph 27.6 mph N/A   Scattered Clouds
5:35 AM 15.8 °F -0.6 °F 1.4 °F 53% 30.03 in 10.0 mi SW 18.4 mph 25.3 mph N/A   Mostly Cloudy
5:55 AM 15.8 °F -0.2 °F 1.4 °F 53% 30.01 in 10.0 mi SW 17.3 mph 23.0 mph N/A   Overcast
6:15 AM 15.8 °F -0.6 °F 3.2 °F 58% 30.00 in 10.0 mi SW 18.4 mph 21.9 mph N/A   Mostly Cloudy
6:35 AM 15.8 °F -0.2 °F 3.2 °F 58% 29.99 in 10.0 mi SW 17.3 mph 26.5 mph N/A   Mostly Cloudy
6:55 AM 15.8 °F 0.3 °F 3.2 °F 58% 29.97 in 10.0 mi SW 16.1 mph 27.6 mph N/A   Overcast
7:15 AM 17.6 °F 1.3 °F 3.2 °F 53% 29.95 in 10.0 mi SW 19.6 mph 25.3 mph N/A   Overcast
7:35 AM 17.6 °F 0.9 °F 3.2 °F 53% 29.94 in 10.0 mi SW 20.7 mph - N/A   Overcast
7:55 AM 17.6 °F 2.2 °F 6.8 °F 63% 29.95 in 10.0 mi SW 17.3 mph - N/A   Overcast
8:15 AM 17.6 °F 2.2 °F 5.0 °F 58% 29.94 in 10.0 mi SW 17.3 mph 21.9 mph N/A   Overcast
8:35 AM 17.6 °F 2.7 °F 6.8 °F 63% 29.92 in 10.0 mi SW 16.1 mph 23.0 mph N/A   Overcast
8:55 AM 17.6 °F 2.7 °F 6.8 °F 63% 29.91 in 10.0 mi SW 16.1 mph 20.7 mph N/A   Overcast
9:15 AM 19.4 °F 5.0 °F 6.8 °F 58% 29.91 in 10.0 mi SW 16.1 mph 24.2 mph N/A   Overcast
9:35 AM 19.4 °F 5.0 °F 8.6 °F 63% 29.90 in 10.0 mi SW 16.1 mph 24.2 mph N/A   Overcast
9:55 AM 19.4 °F 5.5 °F 8.6 °F 63% 29.89 in 10.0 mi SW 15.0 mph 21.9 mph N/A   Overcast
10:15 AM 21.2 °F 7.8 °F 10.4 °F 63% 29.87 in 10.0 mi SW 15.0 mph - N/A   Overcast
10:35 AM 23.0 °F 9.2 °F 10.4 °F 59% 29.87 in 10.0 mi WSW 17.3 mph 20.7 mph N/A   Overcast
10:55 AM 24.8 °F 12.9 °F 12.2 °F 59% 29.86 in 10.0 mi WSW 13.8 mph - N/A   Scattered Clouds
11:15 AM 28.4 °F 17.0 °F 14.0 °F 55% 29.85 in 10.0 mi WSW 15.0 mph - N/A   Clear
11:35 AM 28.4 °F 17.5 °F 14.0 °F 55% 29.83 in 10.0 mi WSW 13.8 mph 20.7 mph N/A   Mostly Cloudy
11:55 AM 30.2 °F 18.5 °F 15.8 °F 55% 29.81 in 10.0 mi WSW 17.3 mph 23.0 mph N/A   Scattered Clouds
12:15 PM 32.0 °F 21.6 °F 15.8 °F 51% 29.80 in 10.0 mi West 15.0 mph - N/A   Partly Cloudy
12:35 PM 32.0 °F 21.2 °F 15.8 °F 51% 29.79 in 10.0 mi WSW 16.1 mph 25.3 mph N/A   Clear
12:55 PM 33.8 °F 24.3 °F 17.6 °F 52% 29.77 in 10.0 mi WSW 13.8 mph 24.2 mph N/A   Clear
1:15 PM 35.6 °F 25.5 °F 17.6 °F 48% 29.76 in 10.0 mi West 17.3 mph 25.3 mph N/A   Clear
1:35 PM 35.6 °F 26.6 °F 19.4 °F 52% 29.74 in 10.0 mi West 13.8 mph 25.3 mph N/A   Clear
1:55 PM 37.4 °F 28.2 °F 21.2 °F 52% 29.73 in 10.0 mi West 16.1 mph 23.0 mph N/A   Clear
2:15 PM 37.4 °F 27.2 °F 21.2 °F 52% 29.71 in 10.0 mi West 19.6 mph 24.2 mph N/A   Clear
2:35 PM 37.4 °F 28.2 °F 24.8 °F 60% 29.70 in 10.0 mi West 16.1 mph 24.2 mph N/A   Clear
2:55 PM 39.2 °F 30.5 °F 24.8 °F 56% 29.69 in 10.0 mi West 16.1 mph 23.0 mph N/A   Clear
3:15 PM 39.2 °F 29.6 °F 28.4 °F 65% 29.68 in 10.0 mi West 19.6 mph 28.8 mph N/A   Partly Cloudy
3:35 PM 39.2 °F 29.8 °F 28.4 °F 65% 29.68 in 10.0 mi West 18.4 mph 29.9 mph N/A   Mostly Cloudy
3:55 PM 39.2 °F 31.2 °F 28.4 °F 65% 29.67 in 10.0 mi West 13.8 mph 20.7 mph N/A   Mostly Cloudy
4:15 PM 39.2 °F 30.8 °F 28.4 °F 65% 29.66 in 10.0 mi West 15.0 mph 21.9 mph N/A   Mostly Cloudy
4:35 PM 39.2 °F 31.2 °F 28.4 °F 65% 29.64 in 10.0 mi West 13.8 mph - N/A   Overcast
4:55 PM 39.2 °F 31.6 °F 28.4 °F 65% 29.64 in 10.0 mi West 12.7 mph 20.7 mph N/A   Overcast
5:15 PM 39.2 °F 31.2 °F 28.4 °F 65% 29.63 in 10.0 mi West 13.8 mph 18.4 mph N/A   Overcast
5:35 PM 39.2 °F 31.6 °F 28.4 °F 65% 29.63 in 10.0 mi West 12.7 mph - N/A   Overcast
5:55 PM 39.2 °F 31.2 °F 28.4 °F 65% 29.64 in 10.0 mi West 13.8 mph 18.4 mph N/A   Overcast
6:15 PM 39.2 °F 32.0 °F 28.4 °F 65% 29.64 in 10.0 mi West 11.5 mph - N/A   Overcast
6:35 PM 39.2 °F 30.5 °F 30.2 °F 70% 29.63 in 10.0 mi West 16.1 mph 23.0 mph N/A   Overcast
6:55 PM 37.4 °F 27.8 °F 33.8 °F 87% 29.62 in 10.0 mi West 17.3 mph 21.9 mph N/A   Mostly Cloudy
7:15 PM 37.4 °F 29.3 °F 33.8 °F 87% 29.61 in 10.0 mi West 12.7 mph - N/A   Overcast
7:35 PM 37.4 °F 30.8 °F 33.8 °F 87% 29.60 in 8.0 mi West 9.2 mph - N/A   Overcast
7:55 PM 37.4 °F 30.8 °F 33.8 °F 87% 29.60 in 10.0 mi West 9.2 mph - N/A   Overcast
8:15 PM 37.4 °F 30.8 °F 35.6 °F 93% 29.60 in 10.0 mi WNW 9.2 mph - N/A   Overcast
8:35 PM 37.4 °F 29.8 °F 35.6 °F 93% 29.60 in 10.0 mi WNW 11.5 mph 20.7 mph N/A   Overcast
8:55 PM 37.4 °F 29.8 °F 35.6 °F 93% 29.59 in 10.0 mi WNW 11.5 mph - N/A   Overcast
9:15 PM 37.4 °F 29.3 °F 35.6 °F 93% 29.59 in 10.0 mi NW 12.7 mph 18.4 mph N/A   Overcast
9:35 PM 37.4 °F 29.8 °F 35.6 °F 93% 29.60 in 10.0 mi NW 11.5 mph 17.3 mph N/A   Overcast
9:55 PM 37.4 °F 29.8 °F 33.8 °F 87% 29.60 in 10.0 mi NNW 11.5 mph 20.7 mph N/A   Overcast
10:15 PM 37.4 °F 30.8 °F 33.8 °F 87% 29.61 in 10.0 mi NW 9.2 mph 17.3 mph N/A   Overcast
10:35 PM 37.4 °F 29.8 °F 33.8 °F 87% 29.62 in 10.0 mi NNW 11.5 mph 16.1 mph N/A   Overcast
10:55 PM 35.6 °F 27.5 °F 33.8 °F 93% 29.64 in 10.0 mi NNW 11.5 mph 16.1 mph N/A   Overcast
11:15 PM 35.6 °F 25.9 °F 32.0 °F 87% 29.64 in 10.0 mi North 16.1 mph 20.7 mph N/A   Overcast
11:35 PM 35.6 °F 28.6 °F 30.2 °F 81% 29.66 in 10.0 mi NNW 9.2 mph 21.9 mph N/A   Overcast
11:55 PM 35.6 °F 28.6 °F 30.2 °F 81% 29.66 in 10.0 mi NNW 9.2 mph 16.1 mph N/A   Overcast